Weather History for Whiteman AFB, MO

Change the Weather History Date:

Monday, November 15, 2010

  Actual Average Record
Temperature  
Mean Temperature 48 °F -  
Max Temperature 57 °F 53 °F 107 °F (2005)
Min Temperature 37 °F 35 °F 23 °F (2000)
Degree Days  
Heating Degree Days 18    
Moisture  
Dew Point 37 °F    
Average Humidity 72    
Maximum Humidity 92    
Minimum Humidity 46    
Precipitation  
Precipitation 0.00 in - - ()
Sea Level Pressure  
Sea Level Pressure 29.83 in    
Wind  
Wind Speed 7 mph (SSW)    
Max Wind Speed 13 mph    
Max Gust Speed 17 mph    
Visibility 9 miles    
Events      
Averages and records for this station are not official NWS values.
T = Trace of Precipitation, MM = Missing Value Source: NWS Daily Summary

Daily Weather History Graph

Daily Weather History Graph

Search for Another Location

Airport:

Trip Planner

Search our weather history database for the weather conditions in past years. The results will help you decide how hot, cold, wet, or windy it might be!

Date:

Astronomy

Nov. 15, 2010 Rise Set
Actual Time 6:56 AM CST 5:00 PM CST
Civil Twilight 6:28 AM CST 5:29 PM CST
Nautical Twilight 5:55 AM CST 6:01 PM CST
Astronomical Twilight 5:24 AM CST 6:32 PM CST
Moon 1:40 PM CST (11/15) 1:05 AM CST (11/15)
Length of Visible Light 11h 01m
Length of Day
10h 04m
Waxing Gibbous, 69% of the Moon is Illuminated
Nov 15
Waxing Gibbous
Nov 21
Full
Nov 28
Last Quarter
Dec 5
New
Dec 13
First Quarter

Hourly Weather History & Observations

Time (CST) Temp. Windchill Dew Point Humidity Pressure Visibility Wind Dir Wind Speed Gust Speed Precip Events Conditions
12:55 AM 38.7 °F 33.6 °F 34.0 °F 83% 29.89 in 10.0 mi South 6.9 mph - N/A   Mostly Cloudy
1:55 AM 39.4 °F 34.5 °F 35.6 °F 86% 29.87 in 10.0 mi South 6.9 mph - N/A   Mostly Cloudy
2:55 AM 40.3 °F 35.5 °F 36.3 °F 86% 29.86 in 10.0 mi South 6.9 mph - N/A   Overcast
3:55 AM 42.1 °F 40.2 °F 37.0 °F 82% 29.84 in 10.0 mi South 3.5 mph - N/A   Overcast
4:55 AM 42.4 °F 38.1 °F 37.0 °F 81% 29.84 in 10.0 mi South 6.9 mph - N/A   Overcast
5:55 AM 40.1 °F 36.1 °F 34.7 °F 81% 29.83 in 10.0 mi South 5.8 mph - N/A   Partly Cloudy
6:55 AM 39.0 °F 34.8 °F 34.0 °F 82% 29.85 in 10.0 mi South 5.8 mph - N/A   Clear
7:55 AM 42.4 °F 38.1 °F 36.5 °F 79% 29.86 in 10.0 mi South 6.9 mph - N/A   Clear
8:55 AM 46.2 °F 40.5 °F 37.4 °F 71% 29.86 in 10.0 mi South 12.7 mph - N/A   Partly Cloudy
9:55 AM 48.0 °F - 37.9 °F 68% 29.86 in 10.0 mi SSW 12.7 mph - N/A   Partly Cloudy
10:55 AM 52.5 °F - 38.8 °F 60% 29.86 in 10.0 mi SW 9.2 mph - N/A   Partly Cloudy
11:55 AM 54.9 °F - 38.8 °F 55% 29.84 in 10.0 mi SSW 12.7 mph - N/A   Scattered Clouds
12:55 PM 56.7 °F - 37.4 °F 49% 29.82 in 10.0 mi SW 12.7 mph - N/A   Clear
1:55 PM 57.9 °F - 37.0 °F 46% 29.81 in 10.0 mi WSW 9.2 mph - N/A   Clear
2:55 PM 57.7 °F - 38.7 °F 49% 29.79 in 10.0 mi SW 11.5 mph 17.3 mph N/A   Partly Cloudy
3:55 PM 55.8 °F - 39.9 °F 55% 29.79 in 10.0 mi South 6.9 mph - N/A   Clear
4:55 PM 49.3 °F - 39.0 °F 68% 29.80 in 7.0 mi South 5.8 mph - N/A   Clear
5:27 PM 50.0 °F - 39.2 °F 66% 29.81 in 4.0 mi South 4.6 mph - N/A   Haze
5:55 PM 50.2 °F - 38.3 °F 64% 29.81 in 7.0 mi South 4.6 mph - N/A   Clear
6:55 PM 47.5 °F - 37.6 °F 69% 29.83 in 10.0 mi SSW 3.5 mph - N/A   Clear
7:55 PM 46.2 °F 45.0 °F 37.8 °F 72% 29.83 in 10.0 mi SW 3.5 mph - N/A   Mostly Cloudy
8:35 PM 42.8 °F - 37.4 °F 81% 29.82 in 5.0 mi Calm Calm - N/A   Haze
8:55 PM 43.9 °F - 37.4 °F 78% 29.82 in 10.0 mi Calm Calm - N/A   Mostly Cloudy
9:55 PM 43.3 °F - 37.0 °F 78% 29.82 in 10.0 mi Calm Calm - N/A   Mostly Cloudy
10:55 PM 41.2 °F - 36.9 °F 85% 29.81 in 10.0 mi Calm Calm - N/A   Mostly Cloudy
11:55 PM 37.9 °F 35.5 °F 35.8 °F 92% 29.81 in 10.0 mi South 3.5 mph - N/A   Mostly Cloudy